TimeMDT,TemperatureF,Dew PointF,Humidity,Sea Level PressureIn,VisibilityMPH,Wind Direction,Wind SpeedMPH,Gust SpeedMPH,PrecipitationIn,Events,Conditions,WindDirDegrees,DateUTC
12:53 AM,66.0,55.9,70,29.62,10.0,East,6.9,-,N/A,,Clear,90,2013-05-18 06:53:00
1:53 AM,64.0,57.0,78,29.62,10.0,East,6.9,-,N/A,,Clear,90,2013-05-18 07:53:00
2:53 AM,64.0,59.0,84,29.64,10.0,SSE,4.6,-,N/A,,Clear,160,2013-05-18 08:53:00
3:53 AM,57.9,50.0,75,29.65,10.0,WNW,6.9,-,N/A,,Clear,290,2013-05-18 09:53:00
4:33 AM,57.2,51.8,82,29.80,10.0,NW,8.1,-,N/A,,Mostly Cloudy,310,2013-05-18 10:33:00
4:53 AM,57.0,51.1,81,29.65,10.0,WNW,8.1,-,N/A,,Overcast,300,2013-05-18 10:53:00
5:53 AM,57.0,50.0,77,29.67,10.0,West,11.5,-,N/A,,Overcast,280,2013-05-18 11:53:00
6:53 AM,55.9,50.0,80,29.71,10.0,West,12.7,18.4,N/A,,Overcast,280,2013-05-18 12:53:00
7:53 AM,57.0,-9999,N/A,29.74,10.0,NW,5.8,-,N/A,,Overcast,310,2013-05-18 13:53:00
8:08 AM,57.2,-9999,N/A,29.86,10.0,Calm,Calm,-,N/A,,Overcast,0,2013-05-18 14:08:00
8:27 AM,59.0,-9999,N/A,29.86,10.0,West,4.6,-,N/A,,Overcast,280,2013-05-18 14:27:00
8:53 AM,63.0,-9999,N/A,29.75,10.0,West,10.4,-,N/A,,Overcast,280,2013-05-18 14:53:00
9:21 AM,62.6,-9999,N/A,29.87,10.0,West,5.8,-,N/A,,Overcast,280,2013-05-18 15:21:00
9:38 AM,64.4,-9999,N/A,29.87,10.0,WNW,6.9,-,N/A,,Overcast,300,2013-05-18 15:38:00
9:53 AM,64.9,-9999,N/A,29.73,10.0,NW,5.8,-,N/A,,Overcast,310,2013-05-18 15:53:00
10:10 AM,66.2,-9999,N/A,29.87,10.0,NW,4.6,-,N/A,,Mostly Cloudy,320,2013-05-18 16:10:00
10:53 AM,71.1,57.0,61,29.70,10.0,Calm,Calm,-,N/A,,Clear,0,2013-05-18 16:53:00
11:53 AM,73.9,55.9,53,29.70,10.0,Variable,4.6,-,N/A,,Partly Cloudy,0,2013-05-18 17:53:00
12:53 PM,75.2,53.6,47,29.81,10.0,Calm,Calm,-,N/A,,Clear,0,2013-05-18 18:53:00
1:53 PM,79.0,50.0,36,29.65,10.0,Variable,4.6,-,N/A,,Clear,0,2013-05-18 19:53:00
2:53 PM,81.0,43.0,26,29.62,10.0,NW,3.5,-,N/A,,Clear,320,2013-05-18 20:53:00
3:53 PM,80.1,42.1,26,29.61,10.0,West,10.4,-,N/A,,Clear,280,2013-05-18 21:53:00
4:53 PM,78.1,35.1,21,29.59,10.0,West,10.4,-,N/A,,Clear,280,2013-05-18 22:53:00
5:53 PM,71.1,53.1,53,29.61,10.0,NNE,16.1,21.9,N/A,,Partly Cloudy,30,2013-05-18 23:53:00
6:09 PM,69.8,51.8,53,29.70,10.0,NNE,20.7,26.5,N/A,Thunderstorm,Clear,30,2013-05-19 00:09:00
6:24 PM,66.2,46.4,49,29.71,10.0,NE,20.7,32.2,N/A,,Mostly Cloudy,40,2013-05-19 00:24:00
6:44 PM,66.2,44.6,46,29.74,10.0,NE,12.7,27.6,0.00,Rain-Thunderstorm,Light Rain,40,2013-05-19 00:44:00
6:53 PM,63.0,48.9,60,29.67,10.0,ENE,16.1,-,0.00,Rain-Thunderstorm,Light Thunderstorms and Rain,60,2013-05-19 00:53:00
7:53 PM,57.0,57.0,100,29.76,5.0,West,11.5,31.1,0.33,Rain-Thunderstorm,Thunderstorms and Rain,270,2013-05-19 01:53:00
8:06 PM,57.2,57.2,100,29.81,5.0,NNE,6.9,-,0.03,Rain,Rain,30,2013-05-19 02:06:00
8:53 PM,57.9,-9999,N/A,29.73,10.0,NNE,5.8,-,0.07,Rain,Light Rain,30,2013-05-19 02:53:00
9:53 PM,57.9,-9999,N/A,29.70,10.0,SSW,8.1,-,0.01,,Partly Cloudy,200,2013-05-19 03:53:00
10:53 PM,57.0,-9999,N/A,29.70,10.0,Calm,Calm,-,N/A,,Clear,0,2013-05-19 04:53:00
11:53 PM,55.0,55.0,100,29.68,10.0,NW,6.9,-,N/A,,Clear,310,2013-05-19 05:53:00